Fresno Yosemite International Airport
KFAT : now visible

Airfield :











YOU CAN JOIN US ON...

 
LOGIN :

Register | Disclaimer

   EN    FR    IT 

 









Legend :    VFR   Marginal VFR   IFR   Intensive IFR   Very Intensive IFR
Visi :
Ceiling :
>= 8 km
>= 3000ft
5 to 8 km
1000 to 3000 ft
1500m to 5 km
500 to 1000 ft
800 to 1500m
200 to 500 ft
< 800m
< 200 ft
Symbols :   Thunderstorms  Fog  Heavy snow  Heavy precipitations  Wind > 20 kt






- Airport Elevation : 336 ft
- IATA code : FAT


KFAT - Fresno Yosemite International

CURRENT METAR :
  • 291553Z 16007KT 10SM CLR 26/14 A2982 RMK AO2 SLP093 T02560144 $

EXPIRED METARs :
  • 291453Z 16007KT 10SM BKN150 BKN200 25/14 A2980 RMK AO2 SLP087 T02500139 52000 $

TAF KFAT
Valid from the 29 at 12:00 until the 30 at 12:00 UTC


291120Z 2912/3012 31004KT P6SM SCT250
FM291800 32006KT P6SM BKN250
FM300200 30010G16KT P6SM BKN250
KZOA FIR / North America



MET'MAP, your aeronautical weather chart ! - Copyright ORBIFLY December 2007 - Disclaimer

ORBIFLY MET'MAP TEAM :

Programming & Development : Alexandra Zaïnal
Concept & original design : Baudouin d'Aumeries
Assistance for programming : Marc-Olivier Méhu
Technical & hardware support : Manuel Goepfert

Contact : metmap@orbifly.com




SOURCES & CREDITS :

   NOAA       Earth
Advisory